sat.trackr.live / text

‹ back to catalog

STARLINK-36266

NORAD 67984 · 2026-038Z

PAYLOAD ACTIVE UNKNOWN

§ Identity

Operator
Country
US
Launch date
2026-02-25
Launch site
AFWTR
Launch vehicle
Mass (kg)
RCS (m²)

Purposes: comms

External: N2YO · Heavens-Above · Gunter

§ Orbital elements

Epoch: 2026-05-25T00:46:06.756096Z

Period
93.91 min
Inclination
97.2826°
Eccentricity
0.0002036
Mean motion
15.33450359 rev/d
Perigee alt
464.1 km
Apogee alt
466.9 km
Semi-major
6,843.7 km
B*
6.1189e-4
RAAN
155.1353°
Arg perigee
95.5591°
Mean anomaly
264.5884°
Rev number
1,494

§ Raw data

STARLINK-362661 67984U 26038Z   26145.03202264  .00019735  00000+0  61189-3 0  99922 67984  97.2826 155.1353 0002036  95.5591 264.5884 15.33450359 14941

JSON: /api/v1/satellites/67984 · /tle

For live sub-satellite position, see the globe view (requires WebGL).

§ Visibility from observer

Set your observer location to see the next 7 days of passes ≥ 10°. The values pass through the URL so the page stays shareable.

No JS? Fill the form by hand. The geolocation button needs JavaScript.